Погода в Ханкале

Россия / Чеченская Республика     43°17′53″N   45°46′51″E
темп.,
°C
ветер,
м/с
пор.,
м/с
влажн.,
%
обл.,
%
осадки,
мм/ч
давл.,
гПа
погр.,
м
4 июля, пн
пн400:00+19юз39606 0.1 1015250
03:00+17юз27644 0.1 1015209
06:00+19юз25555 0.0 1016202
09:00+26з35335 0.0 10162012
12:00+29зсз44259 0.0 10143046
15:00+30зсз44234 0.0 10133033
18:00+28з44270 0.0 10131968
21:00+22юз36480 0.0 1014181
5 июля, вт
вт500:00+19ююз24540 0.0 1014118
03:00+18юз23560 0.0 101470
06:00+20юз23500 0.0 1014143
09:00+28зсз33310 0.0 10141073
12:00+31зсз34233 0.0 10133096
15:00+33зсз442112 0.0 10123519
18:00+29ссз343198 0.0 1012952
21:00+25сз245097 0.1 1014559
6 июля, ср
ср600:00+23юв115484 0.1 101589
03:00+21ююз11562 0.1 101529
06:00+21юз11500 0.0 1015161
09:00+27св22310 0.0 10151253
12:00+31св43230 0.0 10142580
15:00+33всв54190 0.0 10122874
18:00+27всв88350 0.0 10131152
21:00+21всв510480 0.0 1016506
7 июля, чт
чт700:00+18в24620 0.0 1015252
03:00+16в24720 0.0 1014226
06:00+18в13680 0.0 1015329
09:00+24всв23500 0.0 10141003
12:00+30всв5537100 0.0 10111770
15:00+30св76330 0.0 10101703
18:00+26всв67402 0.1 1011978
21:00+20всв356240 0.4 1013326
8 июля, пт
пт800:00+18всв127299 0.3 1012238
03:00+18юз017697 0.3 1012121
06:00+19з117299 0.0 1012262
09:00+25ссв114926 0.0 1012847
12:00+30ююз0139100 0.2 1010916
15:00+32вюв223095 0.2 10081980
18:00+30всв5528100 0.0 1009987
21:00+23в1456100 0.7 1010191